Time,TemperatureF,DewpointF,PressureIn,WindDirection,WindDirectionDegrees,WindSpeedMPH,WindSpeedGustMPH,Humidity,HourlyPrecipIn,Conditions,Clouds,dailyrainin,SoftwareType,DateUTC
2014-03-04 01:00:00,28.0,26.0,-100.00,North,-999,-999.0,-999.0,91,-99.99,,,0.00,,2014-03-04 10:00:00,
2014-03-04 01:53:00,28.0,26.0,-100.00,North,-999,-999.0,-999.0,91,-99.99,,,0.00,,2014-03-04 10:53:00,
2014-03-04 05:00:00,28.0,24.0,-100.00,North,-999,-999.0,-999.0,83,-99.99,,,0.00,,2014-03-04 14:00:00,
2014-03-04 05:52:00,28.0,24.0,-100.00,North,-999,-999.0,-999.0,83,-99.99,,,0.00,,2014-03-04 14:52:00,
2014-03-04 06:00:00,28.0,23.0,-100.00,North,-999,-999.0,-999.0,82,-99.99,,,0.00,,2014-03-04 15:00:00,
2014-03-04 06:54:00,28.0,23.0,-100.00,North,-999,-999.0,-999.0,82,-99.99,,,0.00,,2014-03-04 15:54:00,
2014-03-04 07:00:00,28.0,24.0,-100.00,North,-999,-999.0,-999.0,84,-99.99,,,0.00,,2014-03-04 16:00:00,
2014-03-04 08:00:00,27.0,23.0,-100.00,North,-999,-999.0,-999.0,85,-99.99,,,0.00,,2014-03-04 17:00:00,
2014-03-04 08:53:00,27.0,23.0,-100.00,North,-999,-999.0,-999.0,85,-99.99,,,0.00,,2014-03-04 17:53:00,
2014-03-04 09:00:00,31.0,23.0,-100.00,North,-999,-999.0,-999.0,73,-99.99,,,0.00,,2014-03-04 18:00:00,
2014-03-04 09:52:00,31.0,23.0,-100.00,North,-999,-999.0,-999.0,73,-99.99,,,0.00,,2014-03-04 18:52:00,
2014-03-04 11:00:00,33.0,24.0,-100.00,North,-999,-999.0,-999.0,68,-99.99,,,0.00,,2014-03-04 20:00:00,
2014-03-04 11:52:00,33.0,24.0,-100.00,North,-999,-999.0,-999.0,68,-99.99,,,0.00,,2014-03-04 20:52:00,
2014-03-04 14:00:00,36.0,27.0,-100.00,North,-999,-999.0,-999.0,70,-99.99,,,-99.99,,2014-03-04 23:00:00,
2014-03-04 14:53:00,36.0,27.0,-100.00,North,-999,-999.0,-999.0,70,-99.99,,,-99.99,,2014-03-04 23:53:00,
2014-03-04 19:00:00,29.0,27.0,-100.00,North,-999,-999.0,-999.0,92,-99.99,,,0.00,,2014-03-05 04:00:00,
2014-03-04 19:53:00,29.0,27.0,-100.00,North,-999,-999.0,-999.0,92,-99.99,,,0.00,,2014-03-05 04:53:00,
2014-03-04 20:00:00,29.0,27.0,-100.00,North,-999,-999.0,-999.0,91,-99.99,,,0.00,,2014-03-05 05:00:00,
2014-03-04 20:53:00,29.0,27.0,-100.00,North,-999,-999.0,-999.0,91,-99.99,,,0.00,,2014-03-05 05:53:00,
2014-03-04 21:00:00,29.0,26.0,-100.00,North,-999,-999.0,-999.0,89,-99.99,,,0.00,,2014-03-05 06:00:00,
2014-03-04 21:52:00,29.0,26.0,-100.00,North,-999,-999.0,-999.0,89,-99.99,,,0.00,,2014-03-05 06:52:00,
2014-03-04 22:00:00,29.0,25.0,-100.00,North,-999,-999.0,-999.0,86,-99.99,,,0.00,,2014-03-05 07:00:00,
2014-03-04 22:52:00,29.0,25.0,-100.00,North,-999,-999.0,-999.0,86,-99.99,,,0.00,,2014-03-05 07:52:00,
2014-03-04 23:00:00,29.0,25.0,-100.00,North,-999,-999.0,-999.0,83,-99.99,,,0.00,,2014-03-05 08:00:00,
2014-03-04 23:52:00,29.0,25.0,-100.00,North,-999,-999.0,-999.0,83,-99.99,,,0.00,,2014-03-05 08:52:00,